[Date Prev][Date Next][Thread Prev][Thread Next] - [Date Index][Thread Index][Author Index]
2 Line ISS Keps 8-8
- Subject: [sarex] 2 Line ISS Keps 8-8
- From: "Dave Larsen PhD" <doc@xxxxxxxxxxx>
- Date: Sun, 8 Aug 2004 04:49:50 -0700
ISS
1 25544U 98067A 04221.27215278 .00010885 00000-0 90971-4 0 3999
2 25544 51.6327 59.9084 0005974 92.4297 252.9287 15.70618690326491
----
Via the sarex mailing list at AMSAT.ORG courtesy of AMSAT-NA.
To unsubscribe, send "unsubscribe sarex" to Majordomo@amsat.org
AMSAT Home